Satellite-Ground Cal/Val Site Overpasses Predictions

Prediction of Satellite NPP Overpassing Cal/Val Site: Antarctic Dome C

Ground Cal/Val Site Location: Latitude: -75.10, Longitude: 123.35; Satellite-Ground Site NADIR distance within 100 km.

Table of predicted overpasses for the next 14.0 days since TLE Epoch: 1/23/2022
Interval Starting Time Ending Time Minimum Distance Time Minimum Distance (km)
1 01/24/2022 07:31:47 01/24/2022 07:32:17 01/24/2022 07:32:02 0.45
2 01/27/2022 14:55:09 01/27/2022 14:55:38 01/27/2022 14:55:23 19.48
3 01/28/2022 14:36:26 01/28/2022 14:36:40 01/28/2022 14:36:33 87.60
4 01/29/2022 07:37:57 01/29/2022 07:38:25 01/29/2022 07:38:11 35.72
5 01/30/2022 07:19:10 01/30/2022 07:19:29 01/30/2022 07:19:19 74.49
6 02/01/2022 15:01:20 02/01/2022 15:01:44 02/01/2022 15:01:32 55.87
7 02/02/2022 14:42:29 02/02/2022 14:42:54 02/02/2022 14:42:42 53.36
8 02/03/2022 07:44:08 02/03/2022 07:44:29 02/03/2022 07:44:19 70.39
